Weather History for Ostrava, Czech Republic

Change the Weather History Date:

Thursday, November 28, 2013

  Actual Average (EPKT) Record (EPKT)
Temperature  
Mean Temperature 27 °F -  
Max Temperature 33 °F 37 °F 57 °F (2003)
Min Temperature 21 °F 27 °F 19 °F (1998)
Degree Days  
Heating Degree Days 38    
Moisture  
Dew Point 26 °F    
Average Humidity 86    
Maximum Humidity 100    
Minimum Humidity 67    
Precipitation  
Precipitation 0.00 in 0.05 in - ()
Sea Level Pressure  
Sea Level Pressure 30.27 in    
Wind  
Wind Speed 14 mph ()    
Max Wind Speed 22 mph    
Max Gust Speed -    
Visibility 5.0 miles    
Events Rain    
Averages and records for this station are not official NWS values.
T = Trace of Precipitation, MM = Missing Value Source: Averaged Metar Reports

Daily Weather History Graph

Daily Weather History Graph

Search for Another Location

Airport:

Trip Planner

Search our weather history database for the weather conditions in past years. The results will help you decide how hot, cold, wet, or windy it might be!

Date:

Astronomy

Nov. 28, 2013 Rise Set
Actual Time 7:18 AM CET 3:51 PM CET
Civil Twilight 6:42 AM CET 4:28 PM CET
Nautical Twilight 6:01 AM CET 5:08 PM CET
Astronomical Twilight 5:23 AM CET 5:47 PM CET
Moon 1:36 AM CET (11/28) 1:15 PM CET (11/28)
Length of Visible Light 9h 46m
Length of Day
8h 32m
Waning Crescent, 25% of the Moon is Illuminated
Nov 28
Waning Crescent
Dec 3
New
Dec 9
First Quarter
Dec 17
Full
Dec 25
Last Quarter

Hourly Weather History & Observations

Time (CET) Temp. Windchill Dew Point Humidity Pressure Visibility Wind Dir Wind Speed Gust Speed Precip Events Conditions
12:00 AM 26.6 °F 16.2 °F 23.0 °F 86% 30.39 in - SSW 11.5 mph - N/A   Clear
12:30 AM 26.6 °F 15.7 °F 21.2 °F 80% 30.39 in - SSW 12.7 mph - N/A   Clear
1:00 AM 26 °F - 21 °F 73% 30.45 in 9 mi SSW 13.4 mph - -   Partly Cloudy
1:00 AM 26.6 °F 15.2 °F 21.2 °F 80% 30.39 in - SSW 13.8 mph - N/A   Clear
1:30 AM 26.6 °F 15.7 °F 21.2 °F 80% 30.36 in - SSW 12.7 mph - N/A   Clear
2:00 AM 26.6 °F 16.2 °F 21.2 °F 80% 30.36 in - SSW 11.5 mph - N/A   Clear
2:30 AM 26.6 °F 15.7 °F 21.2 °F 80% 30.36 in - SSW 12.7 mph - N/A   Clear
3:00 AM 26.6 °F 16.2 °F 21.2 °F 80% 30.33 in - SSW 11.5 mph - N/A   Clear
3:30 AM 26.6 °F 14.7 °F 21.2 °F 80% 30.33 in - SSW 15.0 mph - N/A   Clear
4:00 AM 26.6 °F 14.7 °F 21.2 °F 80% 30.33 in - SSW 15.0 mph - N/A   Clear
4:30 AM 26.6 °F 15.7 °F 21.2 °F 80% 30.33 in - SSW 12.7 mph - N/A   Clear
5:00 AM 26.6 °F 15.7 °F 21.2 °F 80% 30.30 in - SSW 12.7 mph - N/A   Clear
5:30 AM 28.4 °F 17.0 °F 21.2 °F 74% 30.30 in - SSW 15.0 mph - N/A   Clear
6:00 AM 28.4 °F 15.8 °F 23.0 °F 80% 30.30 in - SW 18.4 mph - N/A   Clear
6:30 AM 28.4 °F 15.4 °F 23.0 °F 80% 30.30 in - SW 19.6 mph - N/A   Clear
7:00 AM 28 °F - 21 °F 67% 30.36 in 6 mi SW 17.9 mph - -   Mostly Cloudy
7:00 AM 28.4 °F 15.8 °F 23.0 °F 80% 30.30 in - SW 18.4 mph - N/A   Clear
7:30 AM 28.4 °F 15.8 °F 23.0 °F 80% 30.30 in - SW 18.4 mph - N/A   Clear
8:00 AM 28.4 °F 15.8 °F 23.0 °F 80% 30.30 in 6.2 mi SW 18.4 mph - N/A Rain Light Freezing Rain
8:30 AM 28.4 °F 16.2 °F 23.0 °F 80% 30.30 in 6.2 mi SW 17.3 mph - N/A   Overcast
8:37 AM 28.4 °F 15.4 °F 24.8 °F 86% 30.27 in 5.0 mi SW 19.6 mph - N/A Rain Light Freezing Rain
9:00 AM 28.4 °F 15.8 °F 24.8 °F 86% 30.27 in 5.0 mi SW 18.4 mph - N/A Rain Light Freezing Rain
9:30 AM 28.4 °F 15.8 °F 26.6 °F 93% 30.27 in 5.6 mi SW 18.4 mph - N/A Rain Light Freezing Rain
10:00 AM 28.4 °F 14.7 °F 26.6 °F 93% 30.27 in 6.2 mi SW 21.9 mph - N/A   Mostly Cloudy
10:30 AM 28.4 °F 16.6 °F 26.6 °F 93% 30.30 in 6.2 mi SW 16.1 mph - N/A   Overcast
11:00 AM 28.4 °F 16.6 °F 26.6 °F 93% 30.27 in 6.2 mi SW 16.1 mph - N/A   Mostly Cloudy
11:30 AM 30.2 °F 17.4 °F 26.6 °F 86% 30.27 in 6.2 mi SW 20.7 mph - N/A   Mostly Cloudy
12:00 PM 30.2 °F 17.8 °F 26.6 °F 86% 30.24 in 6.2 mi SW 19.6 mph - N/A   Overcast
12:30 PM 30.2 °F 18.1 °F 26.6 °F 86% 30.24 in 6.2 mi SW 18.4 mph - N/A   Overcast
1:00 PM 30 °F - 27 °F 83% 30.30 in 5 mi SW 20.1 mph - -   Mist
1:00 PM 30.2 °F 17.4 °F 26.6 °F 86% 30.24 in 5.0 mi SW 20.7 mph - N/A   Overcast
1:30 PM 30.2 °F 18.1 °F 26.6 °F 86% 30.24 in 4.3 mi SW 18.4 mph - N/A   Overcast
2:00 PM 30.2 °F 18.1 °F 26.6 °F 86% 30.21 in 5.0 mi SW 18.4 mph - N/A   Overcast
2:30 PM 30.2 °F 18.1 °F 28.4 °F 93% 30.21 in 5.0 mi SW 18.4 mph - N/A   Overcast
3:00 PM 30.2 °F 18.9 °F 28.4 °F 93% 30.21 in 4.3 mi SW 16.1 mph - N/A   Overcast
3:30 PM 30.2 °F 18.5 °F 28.4 °F 93% 30.21 in 4.3 mi SW 17.3 mph - N/A   Overcast
4:00 PM 30.2 °F 18.9 °F 28.4 °F 93% 30.21 in 4.3 mi SW 16.1 mph - N/A   Overcast
4:30 PM 30.2 °F 19.3 °F 28.4 °F 93% 30.21 in 4.3 mi SW 15.0 mph - N/A   Overcast
5:00 PM 30.2 °F 19.3 °F 28.4 °F 93% 30.21 in 4.3 mi SW 15.0 mph - N/A   Overcast
5:30 PM 30.2 °F 19.3 °F 28.4 °F 93% 30.21 in 3.7 mi SW 15.0 mph - N/A   Overcast
6:00 PM 30.2 °F 19.3 °F 30.2 °F 100% 30.18 in 3.7 mi SSW 15.0 mph - N/A   Overcast
6:30 PM 32.0 °F 21.2 °F 30.2 °F 93% 30.18 in 4.3 mi SW 16.1 mph - N/A   Overcast
7:00 PM 31 °F - 29 °F 92% 30.26 in 4 mi SW 15.7 mph - -   Mist
7:00 PM 32.0 °F 21.2 °F 30.2 °F 93% 30.21 in 4.3 mi SW 16.1 mph - N/A   Overcast
7:30 PM 32.0 °F 21.2 °F 30.2 °F 93% 30.18 in 4.3 mi SW 16.1 mph - N/A   Overcast
8:00 PM 32.0 °F 21.2 °F 30.2 °F 93% 30.18 in 4.3 mi SW 16.1 mph - N/A   Overcast
8:30 PM 32.0 °F 21.2 °F 30.2 °F 93% 30.18 in 5.0 mi SW 16.1 mph - N/A   Overcast
9:00 PM 33.8 °F 23.9 °F 30.2 °F 87% 30.18 in 5.0 mi SW 15.0 mph - N/A   Overcast
9:30 PM 33.8 °F 23.9 °F 30.2 °F 87% 30.18 in 4.3 mi SW 15.0 mph - N/A   Overcast
10:00 PM 33.8 °F 23.5 °F 32.0 °F 93% 30.18 in 4.3 mi SW 16.1 mph - N/A   Overcast
10:30 PM 33.8 °F 23.9 °F 32.0 °F 93% 30.18 in 3.7 mi SW 15.0 mph - N/A   Overcast
11:00 PM 33.8 °F 23.9 °F 32.0 °F 93% 30.18 in 4.3 mi SW 15.0 mph - N/A   Overcast
11:30 PM 33.8 °F 23.9 °F 32.0 °F 93% 30.15 in 4.3 mi SW 15.0 mph - N/A   Overcast